This is the latest recevied weather packets stored in our database for station/object K1AWR. If no packets are shown the sender has not sent any weather packets the latest 10 day(s).
| Time | Temp. | Humidity | Pressure | Rain* | Wind** | Luminosity | Snow |
|---|---|---|---|---|---|---|---|
| 1778161927 | 12.22° C | 41% | 1010.6 hPa | 0 mm | - | 385 W/m² | - |
| 1778161623 | 12.22° C | 39% | 1010.6 hPa | 0 mm | - | 126 W/m² | - |
| 1778161319 | 12.22° C | 45% | 1010.6 hPa | 0 mm | - | 68 W/m² | - |
| 1778161015 | 12.22° C | 45% | 1010.5 hPa | 0 mm | - | 52 W/m² | - |
| 1778160712 | 12.22° C | 51% | 1010.6 hPa | 0 mm | - | 126 W/m² | - |
| 1778160409 | 11.67° C | 46% | 1010.5 hPa | 0 mm | - | 54 W/m² | - |
| 1778160105 | 11.67° C | 44% | 1010.6 hPa | 0 mm | - | 432 W/m² | - |
| 1778159803 | 11.67° C | 46% | 1010.6 hPa | 0 mm | - | 420 W/m² | - |
| 1778159500 | 11.67° C | 46% | 1010.4 hPa | 0 mm | - | 402 W/m² | - |
| 1778159196 | 11.67° C | 47% | 1010.3 hPa | 0 mm | - | 414 W/m² | - |
| 1778158894 | 11.11° C | 50% | 1010.6 hPa | 0 mm | - | 404 W/m² | - |
| 1778158593 | 11.11° C | 49% | 1010.6 hPa | 0 mm | - | 391 W/m² | - |
| 1778158290 | 11.11° C | 49% | 1010.6 hPa | 0 mm | - | 375 W/m² | - |
| 1778157986 | 11.11° C | 53% | 1010.6 hPa | 0 mm | - | 364 W/m² | - |
| 1778157684 | 10.56° C | 52% | 1010.6 hPa | 0 mm | - | 350 W/m² | - |
| 1778157382 | 10.56° C | 54% | 1010.6 hPa | 0 mm | - | 334 W/m² | - |
| 1778157079 | 10.56° C | 57% | 1010.5 hPa | 0 mm | - | 320 W/m² | - |
| 1778156774 | 10.56° C | 56% | 1010.6 hPa | 0 mm | - | 303 W/m² | - |
| 1778156470 | 10.56° C | 56% | 1010.6 hPa | 0 mm | - | 287 W/m² | - |
| 1778156166 | 10° C | 58% | 1010.5 hPa | 0 mm | - | 292 W/m² | - |
| 1778155862 | 10° C | 61% | 1010.6 hPa | 0 mm | - | 104 W/m² | - |
| 1778155558 | 10° C | 63% | 1010.4 hPa | 0 mm | - | 48 W/m² | - |
| 1778155255 | 10° C | 67% | 1010.5 hPa | 0 mm | - | 42 W/m² | - |
| 1778154952 | 10° C | 67% | 1010.4 hPa | 0 mm | - | 40 W/m² | - |
| 1778154648 | 10° C | 71% | 1010.7 hPa | 0 mm | - | 39 W/m² | - |
* Rain latest hour (hover to see other rain measurements)
** Current wind speed in m/s (hover to see current wind gust speed)